2023/10/30 00:00:00, 0.4, 6.9
2023/10/30 00:10:00, 0.4, 6.8
2023/10/30 00:20:00, 0.4, 6.7
2023/10/30 00:30:00, 0.4, 6.7
2023/10/30 00:40:00, 0.4, 6.8
2023/10/30 00:50:00, 0.5, 6.8
2023/10/30 01:00:00, 0.5, 6.9
2023/10/30 01:10:00, 0.3, 7.1
2023/10/30 01:20:00, 0.2, 7.3
2023/10/30 01:30:00, 0.2, 7.2
2023/10/30 01:40:00, 0.2, 7.1
2023/10/30 01:50:00, 0.1, 7.2
2023/10/30 02:00:00, 0.3, 7.3
2023/10/30 02:10:00, 0.3, 7.4
2023/10/30 02:20:00, 0.2, 7.3
2023/10/30 02:30:00, 0.2, 7.2
2023/10/30 02:40:00, 0.1, 7.0
2023/10/30 02:50:00, 0.2, 7.0
2023/10/30 03:00:00, 0.2, 6.7
2023/10/30 03:10:00, 0.2, 6.4
2023/10/30 03:20:00, 0.3, 6.5
2023/10/30 03:30:00, 0.5, 6.3
2023/10/30 03:40:00, 0.3, 6.3
2023/10/30 03:50:00, 0.4, 6.0
2023/10/30 04:00:00, 0.4, 6.0
2023/10/30 04:10:00, 0.4, 6.0
2023/10/30 04:20:00, 0.6, 6.0
2023/10/30 04:30:00, 0.7, 5.8
2023/10/30 04:40:00, 0.8, 5.5
2023/10/30 04:50:00, 0.8, 5.7
2023/10/30 05:00:00, 0.9, 5.8
2023/10/30 05:10:00, 1.1, 5.7
2023/10/30 05:20:00, 1.4, 5.7
2023/10/30 05:30:00, 1.7, 6.0
2023/10/30 05:40:00, 2.2, 6.0
2023/10/30 05:50:00, 2.6, 5.3
2023/10/30 06:00:00, 2.8, 5.4
2023/10/30 06:10:00, 2.9, 5.6
2023/10/30 06:20:00,27.4, 5.5
2023/10/30 06:30:00,113.2, 5.5
2023/10/30 06:40:00,169.1, 5.6
2023/10/30 06:50:00,---, 5.6
2023/10/30 07:00:00,---, 5.5
2023/10/30 07:10:00,---, 5.5
2023/10/30 07:20:00,320.3, 6.0
2023/10/30 07:30:00,320.5, 6.0
2023/10/30 07:40:00,321.0, 6.4
2023/10/30 07:50:00,321.1, 6.7
2023/10/30 08:00:00,321.4, 7.3
2023/10/30 08:10:00,321.8, 7.3
2023/10/30 08:20:00,321.9, 7.8
2023/10/30 08:30:00,322.2, 8.2
2023/10/30 08:40:00,322.3, 8.8
2023/10/30 08:50:00,322.2, 9.2
2023/10/30 09:00:00,322.0, 9.6
2023/10/30 09:10:00,---,10.4
2023/10/30 09:20:00,---,11.2
2023/10/30 09:30:00, 1.8,12.1
2023/10/30 09:40:00, 1.6,12.3
2023/10/30 09:50:00, 1.3,12.8
2023/10/30 10:00:00, 1.0,13.2
2023/10/30 10:10:00, 0.4,13.2
2023/10/30 10:20:00, 0.3,13.7
2023/10/30 10:30:00, 0.3,14.1
2023/10/30 10:40:00, 0.2,14.5
2023/10/30 10:50:00, 0.3,15.0
2023/10/30 11:00:00, 0.1,15.9
2023/10/30 11:10:00, 0.1,16.3
2023/10/30 11:20:00, 0.0,17.1
2023/10/30 11:30:00, 0.0,17.0
2023/10/30 11:40:00, 0.0,17.4
2023/10/30 11:50:00, 0.0,16.8
2023/10/30 12:00:00, 0.0,17.1
2023/10/30 12:10:00, 0.0,16.8
2023/10/30 12:20:00, 0.0,17.1
2023/10/30 12:30:00, 0.0,16.7
2023/10/30 12:40:00, 0.0,18.0
2023/10/30 12:50:00, 0.0,18.1
2023/10/30 13:00:00, 0.0,17.6
2023/10/30 13:10:00, 0.1,16.8
2023/10/30 13:20:00, 0.1,17.2
2023/10/30 13:30:00, 0.1,17.5
2023/10/30 13:40:00, 0.1,16.8
2023/10/30 13:50:00, 0.1,16.1
2023/10/30 14:00:00, 0.0,16.2
2023/10/30 14:10:00, 0.0,16.8
2023/10/30 14:20:00, 0.0,16.5
2023/10/30 14:30:00, 0.0,16.3
2023/10/30 14:40:00, 0.1,15.6
2023/10/30 14:50:00, 0.2,15.5
2023/10/30 15:00:00, 0.1,15.2
2023/10/30 15:10:00, 0.0,15.2
2023/10/30 15:20:00, 0.1,15.2
2023/10/30 15:30:00, 0.0,15.2
2023/10/30 15:40:00, 0.1,14.5
2023/10/30 15:50:00, 0.1,14.1
2023/10/30 16:00:00, 0.1,14.2
2023/10/30 16:10:00, 0.1,14.5
2023/10/30 16:20:00, 0.3,14.0
2023/10/30 16:30:00, 0.3,13.1
2023/10/30 16:40:00, 0.4,12.6
2023/10/30 16:50:00, 0.4,11.9
2023/10/30 17:00:00, 0.4,11.6
2023/10/30 17:10:00, 0.3,11.7
2023/10/30 17:20:00, 0.3,11.3
2023/10/30 17:30:00, 0.3,11.2
2023/10/30 17:40:00, 0.2,10.9
2023/10/30 17:50:00, 0.2,10.7
2023/10/30 18:00:00, 0.3,10.4
2023/10/30 18:10:00, 0.2,10.0
2023/10/30 18:20:00, 0.3,10.2
2023/10/30 18:30:00, 0.3,10.2
2023/10/30 18:40:00, 0.3, 9.7
2023/10/30 18:50:00, 0.2, 9.8
2023/10/30 19:00:00, 0.2, 9.6
2023/10/30 19:10:00, 0.3, 9.4
2023/10/30 19:20:00, 0.2, 9.1
2023/10/30 19:30:00, 0.2, 8.9
2023/10/30 19:40:00, 0.2, 8.8
2023/10/30 19:50:00, 0.2, 8.5
2023/10/30 20:00:00, 0.1, 8.3
2023/10/30 20:10:00, 0.1, 7.9
2023/10/30 20:20:00, 0.2, 8.0
2023/10/30 20:30:00, 0.2, 8.0
2023/10/30 20:40:00, 0.1, 7.9
2023/10/30 20:50:00, 0.1, 7.8
2023/10/30 21:00:00, 0.2, 8.0
2023/10/30 21:10:00, 0.3, 7.7
2023/10/30 21:20:00, 0.3, 7.6
2023/10/30 21:30:00, 0.2, 7.5
2023/10/30 21:40:00, 0.2, 7.4
2023/10/30 21:50:00, 0.2, 7.4
2023/10/30 22:00:00, 0.2, 7.3
2023/10/30 22:10:00, 0.1, 7.4
2023/10/30 22:20:00, 0.1, 7.1
2023/10/30 22:30:00, 0.1, 7.0
2023/10/30 22:40:00, 0.2, 7.3
2023/10/30 22:50:00, 0.4, 7.2
2023/10/30 23:00:00, 0.4, 7.2
2023/10/30 23:10:00, 0.4, 6.8
2023/10/30 23:20:00, 0.4, 7.1
2023/10/30 23:30:00, 0.4, 6.8
2023/10/30 23:40:00, 0.4, 7.2
2023/10/30 23:50:00, 0.5, 7.1
